Weather in Andriivka

Ukraine / Dnipropetrovsk Region     48°46′00″N   35°27′13″E
temp.,
°C
wind,
m/s
gust,
m/s
humid.,
%
clouds,
%
prec.,
mm/h
press.,
hPa
HPBL,
m
18 may, tue
tue1800:00+16sse3390100 0.3 100646
03:00+14s3495100 0.3 100587
06:00+14ssw4793100 0.0 1005243
09:00+18ssw5678100 0.1 1006760
12:00+20s576356 0.8 10051379
15:00+21s7959100 2.6 10051873
18:00+19ssw6107199 0.7 10051216
21:00+14sse3991100 1.2 1005225
19 may, wed
wed1900:00+14sse4893100 1.3 1004247
03:00+13sse5992100 1.6 1005406
06:00+12sse3796100 0.9 1004334
09:00+15s577999 1.0 1005852
12:00+19s685848 0.9 10051764
15:00+19s685499 1.3 10041973
18:00+16s677623 1.3 1004865
21:00+12se369429 1.5 1005139
20 may, thu
thu2000:00+12sw5109679 0.3 1005385
03:00+12sw6994100 0.3 1006643
06:00+12sw61093100 0.2 1008571
09:00+13sw698890 0.3 1009724
12:00+19wsw7115759 0.1 10101834
15:00+19sw6960100 0.2 10111128
18:00+17wsw3669100 0.1 1011228
21:00+15wsw127499 0.1 101212
21 may, fri
fri2100:00+14n3480100 0.1 1013103
03:00+11nne61084100 0.1 1014309
06:00+11ne61280100 0.0 1014319
09:00+14ene71169100 0.0 1013443
12:00+17ene61070100 0.0 1013632
15:00+20ene6968100 0.0 1012956
18:00+21ne5973100 0.0 1011405
21:00+17ne4886100 0.0 1011153
22 may, sat
sat2200:00+16ne4691100 0.0 1010108
03:00+14nne469577 0.0 101087
06:00+14nne4795100 0.0 1010168
09:00+20nne45765 0.0 1010453
12:00+24nne4563100 0.0 1010918
15:00+26ne2359100 0.0 10101257
18:00+26ne456691 0.0 1010742
21:00+20ne3385100 0.0 101041